TimeCST,TemperatureF,Dew PointF,Humidity,Sea Level PressureIn,VisibilityMPH,Wind Direction,Wind SpeedMPH,Gust SpeedMPH,PrecipitationIn,Events,Conditions,WindDirDegrees,DateUTC
12:15 AM,41.0,35.6,81,29.99,10.0,NNW,12.7,19.6,N/A,,Overcast,340,2012-11-07 06:15:00
12:35 AM,41.0,35.6,81,29.99,10.0,NNW,13.8,-,N/A,,Overcast,340,2012-11-07 06:35:00
12:55 AM,41.0,37.4,87,30.00,10.0,NNW,10.4,18.4,N/A,,Overcast,340,2012-11-07 06:55:00
1:15 AM,41.0,37.4,87,30.01,10.0,NNW,10.4,-,N/A,,Overcast,340,2012-11-07 07:15:00
1:35 AM,41.0,37.4,87,30.01,7.0,North,11.5,-,N/A,Rain,Light Rain,350,2012-11-07 07:35:00
1:55 AM,41.0,37.4,87,30.01,10.0,North,12.7,19.6,N/A,,Light Drizzle,350,2012-11-07 07:55:00
2:15 AM,39.2,37.4,93,30.02,9.0,North,9.2,18.4,N/A,,Light Drizzle,360,2012-11-07 08:15:00
2:55 AM,39.2,37.4,93,30.03,6.0,North,10.4,17.3,N/A,,Light Drizzle,360,2012-11-07 08:55:00
3:15 AM,39.2,37.4,93,30.04,10.0,North,8.1,-,N/A,,Overcast,350,2012-11-07 09:15:00
3:35 AM,39.2,37.4,93,30.04,10.0,NNW,6.9,-,N/A,,Light Drizzle,340,2012-11-07 09:35:00
3:55 AM,39.2,37.4,93,30.04,9.0,NNW,8.1,-,N/A,,Light Drizzle,340,2012-11-07 09:55:00
4:15 AM,39.2,37.4,93,30.05,7.0,North,9.2,-,N/A,,Light Drizzle,360,2012-11-07 10:15:00
4:35 AM,39.2,37.4,93,30.06,10.0,North,8.1,-,N/A,,Overcast,350,2012-11-07 10:35:00
4:55 AM,39.2,37.4,93,30.06,10.0,North,6.9,-,N/A,,Overcast,350,2012-11-07 10:55:00
5:15 AM,39.2,37.4,93,30.07,10.0,NNW,8.1,-,N/A,,Overcast,340,2012-11-07 11:15:00
5:35 AM,39.2,37.4,93,30.07,10.0,NNW,8.1,-,N/A,,Overcast,340,2012-11-07 11:35:00
5:55 AM,39.2,37.4,93,30.08,10.0,North,6.9,-,N/A,,Overcast,350,2012-11-07 11:55:00
6:15 AM,39.2,37.4,93,30.08,10.0,North,4.6,-,N/A,,Overcast,360,2012-11-07 12:15:00
6:35 AM,39.2,37.4,93,30.08,10.0,North,5.8,-,N/A,,Overcast,350,2012-11-07 12:35:00
6:55 AM,39.2,37.4,93,30.09,10.0,North,5.8,-,N/A,,Overcast,350,2012-11-07 12:55:00
7:15 AM,39.2,37.4,93,30.10,10.0,NNW,5.8,-,N/A,,Overcast,340,2012-11-07 13:15:00
7:35 AM,39.2,37.4,93,30.10,10.0,North,4.6,-,N/A,,Overcast,350,2012-11-07 13:35:00
7:55 AM,39.2,37.4,93,30.11,10.0,North,4.6,-,N/A,,Overcast,350,2012-11-07 13:55:00
8:15 AM,39.2,37.4,93,30.12,10.0,NNW,4.6,-,N/A,,Overcast,340,2012-11-07 14:15:00
8:35 AM,39.2,37.4,93,30.12,10.0,NNW,4.6,-,N/A,,Overcast,330,2012-11-07 14:35:00
8:55 AM,39.2,35.6,87,30.12,10.0,North,5.8,-,N/A,,Overcast,360,2012-11-07 14:55:00
9:15 AM,41.0,35.6,81,30.12,10.0,Variable,4.6,-,N/A,,Overcast,0,2012-11-07 15:15:00
9:35 AM,41.0,35.6,81,30.13,10.0,North,4.6,-,N/A,,Overcast,360,2012-11-07 15:35:00
9:55 AM,41.0,35.6,81,30.13,10.0,NNW,5.8,-,N/A,,Overcast,330,2012-11-07 15:55:00
10:15 AM,41.0,35.6,81,30.13,10.0,NW,4.6,-,N/A,,Overcast,320,2012-11-07 16:15:00
10:35 AM,41.0,33.8,76,30.13,10.0,Calm,Calm,-,N/A,,Overcast,0,2012-11-07 16:35:00
10:55 AM,42.8,33.8,70,30.13,10.0,Calm,Calm,-,N/A,,Overcast,0,2012-11-07 16:55:00
11:15 AM,42.8,33.8,70,30.13,10.0,Variable,3.5,-,N/A,,Overcast,0,2012-11-07 17:15:00
11:35 AM,42.8,33.8,70,30.13,10.0,NNE,3.5,-,N/A,,Overcast,30,2012-11-07 17:35:00
11:55 AM,42.8,32.0,66,30.12,10.0,Calm,Calm,-,N/A,,Overcast,0,2012-11-07 17:55:00
12:15 PM,42.8,32.0,66,30.11,10.0,Calm,Calm,-,N/A,,Overcast,0,2012-11-07 18:15:00
12:35 PM,42.8,32.0,66,30.11,10.0,North,3.5,-,N/A,,Overcast,350,2012-11-07 18:35:00
12:55 PM,44.6,32.0,61,30.10,10.0,NE,5.8,-,N/A,,Overcast,50,2012-11-07 18:55:00
1:15 PM,44.6,32.0,61,30.09,10.0,Calm,Calm,-,N/A,,Overcast,0,2012-11-07 19:15:00
1:35 PM,44.6,32.0,61,30.09,10.0,Calm,Calm,-,N/A,,Overcast,0,2012-11-07 19:35:00
1:55 PM,44.6,32.0,61,30.09,10.0,Calm,Calm,-,N/A,,Overcast,0,2012-11-07 19:55:00
2:15 PM,44.6,32.0,61,30.08,10.0,Calm,Calm,-,N/A,,Overcast,0,2012-11-07 20:15:00
2:35 PM,44.6,32.0,61,30.08,10.0,Calm,Calm,-,N/A,,Overcast,0,2012-11-07 20:35:00
2:55 PM,44.6,32.0,61,30.08,10.0,Calm,Calm,-,N/A,,Overcast,0,2012-11-07 20:55:00
3:15 PM,44.6,32.0,61,30.08,10.0,Calm,Calm,-,N/A,,Overcast,0,2012-11-07 21:15:00
3:35 PM,44.6,32.0,61,30.07,10.0,Calm,Calm,-,N/A,,Overcast,0,2012-11-07 21:35:00
3:55 PM,44.6,32.0,61,30.07,10.0,Calm,Calm,-,N/A,,Mostly Cloudy,0,2012-11-07 21:55:00
4:15 PM,44.6,33.8,66,30.07,10.0,SE,5.8,-,N/A,,Partly Cloudy,130,2012-11-07 22:15:00
4:35 PM,42.8,33.8,70,30.07,10.0,ESE,4.6,-,N/A,,Clear,120,2012-11-07 22:35:00
4:55 PM,42.8,33.8,70,30.07,10.0,SE,6.9,-,N/A,,Clear,140,2012-11-07 22:55:00
5:15 PM,41.0,33.8,76,30.07,10.0,SE,4.6,-,N/A,,Clear,130,2012-11-07 23:15:00
5:35 PM,41.0,33.8,76,30.07,10.0,SE,6.9,-,N/A,,Clear,140,2012-11-07 23:35:00
5:55 PM,39.2,33.8,81,30.07,10.0,SE,6.9,-,N/A,,Clear,140,2012-11-07 23:55:00
6:15 PM,39.2,33.8,81,30.07,10.0,SE,5.8,-,N/A,,Clear,130,2012-11-08 00:15:00
6:35 PM,39.2,32.0,75,30.06,10.0,SE,6.9,-,N/A,,Clear,130,2012-11-08 00:35:00
6:55 PM,37.4,32.0,81,30.06,10.0,SE,6.9,-,N/A,,Clear,130,2012-11-08 00:55:00
7:15 PM,37.4,32.0,81,30.06,10.0,SE,8.1,-,N/A,,Clear,130,2012-11-08 01:15:00
7:35 PM,37.4,32.0,81,30.06,10.0,SE,8.1,-,N/A,,Clear,140,2012-11-08 01:35:00
7:55 PM,37.4,32.0,81,30.05,10.0,SE,6.9,-,N/A,,Clear,130,2012-11-08 01:55:00
8:15 PM,37.4,32.0,81,30.05,10.0,SE,6.9,-,N/A,,Clear,140,2012-11-08 02:15:00
8:35 PM,35.6,32.0,87,30.06,10.0,SE,6.9,-,N/A,,Clear,140,2012-11-08 02:35:00
8:55 PM,35.6,32.0,87,30.06,10.0,SSE,9.2,-,N/A,,Clear,150,2012-11-08 02:55:00
9:15 PM,37.4,32.0,81,30.06,10.0,SSE,11.5,-,N/A,,Clear,150,2012-11-08 03:15:00
9:35 PM,35.6,32.0,87,30.06,10.0,SSE,12.7,-,N/A,,Clear,150,2012-11-08 03:35:00
9:55 PM,35.6,32.0,87,30.06,10.0,SSE,11.5,-,N/A,,Clear,160,2012-11-08 03:55:00
10:15 PM,35.6,32.0,87,30.06,10.0,SSE,12.7,-,N/A,,Clear,160,2012-11-08 04:15:00
10:35 PM,35.6,32.0,87,30.07,10.0,South,11.5,-,N/A,,Clear,170,2012-11-08 04:35:00
10:55 PM,35.6,32.0,87,30.06,10.0,SSE,11.5,-,N/A,,Clear,160,2012-11-08 04:55:00
11:15 PM,35.6,32.0,87,30.06,10.0,South,12.7,-,N/A,,Clear,170,2012-11-08 05:15:00
11:35 PM,35.6,32.0,87,30.05,10.0,SSE,16.1,-,N/A,,Clear,160,2012-11-08 05:35:00
11:55 PM,35.6,32.0,87,30.05,10.0,SSE,13.8,19.6,N/A,,Clear,160,2012-11-08 05:55:00